Home > Weather > Downey > Past weeks

Flag for U.S.A. Weather for the Past 2 Weeks in Downey, California, U.S.A.

Now
62 °F

Clear.


Feels Like: 62 °F
Forecast: 51 / 82 °F
Wind: 5 mph from Northwest

Location: Long Beach Airport

Current Time: Feb 12, 2016 at 8:49:09 PM

Latest Report: Feb 12, 2016 at 7:53 PM


Visibility: 10 mi

Pressure: 30.05 "Hg

Humidity: 70%

Dew point: 52 °F

Location of DowneyLocation

Historic Weather in Downey — Graph

°F

Downey Temperature Yesterday

Maximum temperature yesterday: 77 °F (at 10:53 AM)
Minimum temperature yesterday: 53 °F (at 6:53 AM)
Average temperature yesterday: 65 °F

High & Low Weather Summary for the Past Weeks

 TemperatureHumidityPressure
High91 °F (Feb 9, 1:53 PM)100% (Jan 29, 10:53 PM)30.36 "Hg (Jan 29, 10:53 PM)
Low40 °F (Feb 2, 5:53 AM)12% (Feb 6, 2:53 PM)29.63 "Hg (Jan 31, 1:53 PM)
Average61 °F48%30.11 "Hg
* Reported Jan 28 6:53 PM — Feb 12 6:53 PM, Downey, Weather by CustomWeather, © 2016

Note: Actual official high and low records may vary slightly from our data, if they occured in-between our weather recording intervals... More about our weather records

Advertising

Downey Weather History for the Previous 24 Hours

 ConditionsComfort  
Time TempWeatherWind HumidityBarometerVisibility
6:53 PM
Fri, Feb 12
63 °FClear.7 mph65%30.05 "Hg10 mi
5:53 PM68 °FClear.7 mph53%30.04 "Hg10 mi
4:53 PM74 °FSunny.7 mph38%30.03 "Hg10 mi
3:53 PM79 °FSunny.N/A36%30.02 "Hg10 mi
2:53 PM76 °FSunny.8 mph40%30.01 "Hg10 mi
1:53 PM79 °FSunny.7 mph27%30.02 "Hg7 mi
12:53 PM78 °FSunny.8 mph31%30.05 "Hg6 mi
11:53 AM79 °FSunny.No wind22%30.08 "Hg7 mi
10:53 AM75 °FSunny.No wind27%30.11 "Hg7 mi
9:53 AM70 °FSunny.No wind34%30.11 "Hg7 mi
8:53 AM64 °FSunny.No wind43%30.11 "Hg8 mi
7:53 AM58 °FSunny.No wind58%30.11 "Hg8 mi
6:53 AM51 °FSunny.No wind71%30.10 "Hg9 mi
5:53 AM52 °FClear.No wind69%30.09 "Hg10 mi
4:53 AM52 °FClear.No wind69%30.07 "Hg10 mi
3:53 AM54 °FClear.No wind62%30.08 "Hg10 mi
2:53 AM55 °FClear.No wind62%30.08 "Hg10 mi
1:53 AM55 °FClear.No wind59%30.10 "Hg10 mi
12:53 AM57 °FClear.No wind55%30.10 "Hg10 mi
11:53 PM
Thu, Feb 11
59 °FClear.3 mph51%30.11 "Hg10 mi
10:53 PM60 °FClear.No wind49%30.10 "Hg10 mi
9:53 PM63 °FClear.No wind41%30.10 "Hg10 mi
8:53 PM65 °FClear.No wind37%30.10 "Hg10 mi
Weather by CustomWeather, © 2016

See weather overviewHow to use our weather pages